Location: Eaton Estates
(41.3089°N, 82.0057°W)
Time: 00:47:07
(UTC+00:00)

Cosmos 1513 Rocket - Pass Details

Date: 17 June 2021
Orbit: 940 x 1008 km, 82.9° (Epoch: 02 August)

Event Time Altitude Azimuth Distance (km) Brightness Sun altitude
Rises 04:50:22 0° 352° (N) 3,613 8.9 -24.7°
Reaches altitude 10° 04:52:51 10° 352° (N) 2,667 7.9 -24.8°
Maximum altitude 04:58:57 87° 265° (W) 955 4.3 -24.9°
Enters shadow 05:00:13 59° 179° (S) 1,087 4.4 -25.0°
